Погода в Ровдине

Россия / Архангельская область     61°41′00″N   42°32′09″E
темп.,
°C
ветер,
м/с
пор.,
м/с
влажн.,
%
обл.,
%
осадки,
мм/ч
давл.,
гПа
погр.,
м
10 мая, пн
пн1000:00+4зсз2789100 0.0 1017273
03:00+2зсз269079 0.0 1020135
06:00+4сз27720 0.0 1022239
09:00+10сз24390 0.0 10241480
12:00+13зсз23305 0.0 10252035
15:00+14зюз2327100 0.0 10252169
18:00+13юз343663 0.0 10261344
21:00+8ююз265977 0.0 1027113
11 мая, вт
вт1100:00+7ююз31066100 0.0 1026237
03:00+9ююз41261100 0.0 1027476
06:00+9ююз41064100 0.0 1027388
09:00+14юз4853100 0.0 1027615
12:00+19юз5847100 0.0 10261145
15:00+16ююз385957 0.0 1027444
18:00+20юз36505 0.0 10271225
21:00+13юз25767 0.0 102782
12 мая, ср
ср1200:00+11ююз288539 0.0 1028145
03:00+9ююз23915 0.0 102952
06:00+13ююз267559 0.0 1029189
09:00+19юз344930 0.0 1029704
12:00+23юз23375 0.0 10281450
15:00+24юз23335 0.0 10271744
18:00+23ююз23400 0.0 1026281
21:00+16ю126413 0.0 102612
13 мая, чт
чт1300:00+13ю22774 0.0 102737
03:00+12ю22840 0.0 102723
06:00+15ю24711 0.0 1027154
09:00+21ю24450 0.0 1026636
12:00+25ю353750 0.0 10252293
15:00+25ююз453490 0.0 10232313
18:00+22юз265071 0.0 1022462
21:00+17ю226968 0.0 102219
14 мая, пт
пт1400:00+14ююв11775 0.1 102112
03:00+13ююв228010 0.1 102144
06:00+15ю2887100 0.4 1020274
09:00+20ююз3665100 0.4 1019899
12:00+21ююз465885 1.1 10181524
15:00+22ю255299 1.6 1017684
18:00+21зюз3650100 0.0 1016494
21:00+16юз2271100 0.0 101624